#Datum;Uhrzeit;WR;Pac;DaySum;Status;WR;Pac;DaySum;Status;Pdc1;Udc;Temp;WR;Pac;DaySum;Status;Pdc1;Udc;Temp;WR;Pac;DaySum;Status;Pdc1;Udc;Temp;WR;Pac;DaySum;Status;Pdc1;Pdc2;Udc1;Udc2;Temp;WR;Pac;DaySum;Status;Pdc1;Pdc2;Udc1;Udc2;Temp;WR;Pac;DaySum;Status;Pdc1;Udc;Temp;WR;Pac;DaySum;Status;Pdc1;Udc;Temp;WR;Pac;DaySum;Status;Pdc1;Udc;Temp
10.02.20;23:55:00;1;212;19015;0;2;0;14079;0;0;0;0;3;0;8762;0;0;0;0;4;0;10663;0;0;0;0;5;0;27853;0;0;0;0;0;0;6;0;21283;0;0;0;0;0;0;7;0;19850;0;0;0;0;8;0;19441;0;0;0;0;9;0;10070;0;0;0;0
10.02.20;23:50:00;1;212;18998;0;2;0;14079;0;0;0;0;3;0;8762;0;0;0;0;4;0;10663;0;0;0;0;5;0;27853;0;0;0;0;0;0;6;0;21283;0;0;0;0;0;0;7;0;19850;0;0;0;0;8;0;19441;0;0;0;0;9;0;10070;0;0;0;0
10.02.20;23:45:00;1;247;18980;0;2;0;14079;0;0;0;0;3;0;8762;0;0;0;0;4;0;10663;0;0;0;0;5;0;27853;0;0;0;0;0;0;6;0;21283;0;0;0;0;0;0;7;0;19850;0;0;0;0;8;0;19441;0;0;0;0;9;0;10070;0;0;0;0
10.02.20;23:40:00;1;222;18959;0;2;0;14079;0;0;0;0;3;0;8762;0;0;0;0;4;0;10663;0;0;0;0;5;0;27853;0;0;0;0;0;0;6;0;21283;0;0;0;0;0;0;7;0;19850;0;0;0;0;8;0;19441;0;0;0;0;9;0;10070;0;0;0;0
10.02.20;23:35:00;1;224;18940;0;2;0;14079;0;0;0;0;3;0;8762;0;0;0;0;4;0;10663;0;0;0;0;5;0;27853;0;0;0;0;0;0;6;0;21283;0;0;0;0;0;0;7;0;19850;0;0;0;0;8;0;19441;0;0;0;0;9;0;10070;0;0;0;0
10.02.20;23:30:00;1;254;18920;0;2;0;14079;0;0;0;0;3;0;8762;0;0;0;0;4;0;10663;0;0;0;0;5;0;27853;0;0;0;0;0;0;6;0;21283;0;0;0;0;0;0;7;0;19850;0;0;0;0;8;0;19441;0;0;0;0;9;0;10070;0;0;0;0
10.02.20;23:25:00;1;254;18899;0;2;0;14079;0;0;0;0;3;0;8762;0;0;0;0;4;0;10663;0;0;0;0;5;0;27853;0;0;0;0;0;0;6;0;21283;0;0;0;0;0;0;7;0;19850;0;0;0;0;8;0;19441;0;0;0;0;9;0;10070;0;0;0;0
10.02.20;23:20:00;1;224;18878;0;2;0;14079;0;0;0;0;3;0;8762;0;0;0;0;4;0;10663;0;0;0;0;5;0;27853;0;0;0;0;0;0;6;0;21283;0;0;0;0;0;0;7;0;19850;0;0;0;0;8;0;19441;0;0;0;0;9;0;10070;0;0;0;0
10.02.20;23:15:00;1;229;18858;0;2;0;14079;0;0;0;0;3;0;8762;0;0;0;0;4;0;10663;0;0;0;0;5;0;27853;0;0;0;0;0;0;6;0;21283;0;0;0;0;0;0;7;0;19850;0;0;0;0;8;0;19441;0;0;0;0;9;0;10070;0;0;0;0
10.02.20;23:10:00;1;250;18838;0;2;0;14079;0;0;0;0;3;0;8762;0;0;0;0;4;0;10663;0;0;0;0;5;0;27853;0;0;0;0;0;0;6;0;21283;0;0;0;0;0;0;7;0;19850;0;0;0;0;8;0;19441;0;0;0;0;9;0;10070;0;0;0;0
10.02.20;23:05:00;1;213;18818;0;2;0;14079;0;0;0;0;3;0;8762;0;0;0;0;4;0;10663;0;0;0;0;5;0;27853;0;0;0;0;0;0;6;0;21283;0;0;0;0;0;0;7;0;19850;0;0;0;0;8;0;19441;0;0;0;0;9;0;10070;0;0;0;0
10.02.20;23:00:00;1;216;18800;0;2;0;14079;0;0;0;0;3;0;8762;0;0;0;0;4;0;10663;0;0;0;0;5;0;27853;0;0;0;0;0;0;6;0;21283;0;0;0;0;0;0;7;0;19850;0;0;0;0;8;0;19441;0;0;0;0;9;0;10070;0;0;0;0
10.02.20;22:55:00;1;233;18782;0;2;0;14079;0;0;0;0;3;0;8762;0;0;0;0;4;0;10663;0;0;0;0;5;0;27853;2;0;0;0;0;0;6;0;21283;2;0;0;0;0;0;7;0;19850;0;0;0;0;8;0;19441;0;0;0;0;9;0;10070;0;0;0;0
10.02.20;22:50:00;1;278;18761;0;2;0;14079;0;0;0;0;3;0;8762;0;0;0;0;4;0;10663;0;0;0;0;5;0;27853;2;0;0;0;0;0;6;0;21283;2;0;0;0;0;0;7;0;19850;0;0;0;0;8;0;19441;0;0;0;0;9;0;10070;0;0;0;0
10.02.20;22:45:00;1;310;18738;0;2;0;14079;0;0;0;0;3;0;8762;0;0;0;0;4;0;10663;0;0;0;0;5;0;27853;2;0;0;0;0;0;6;0;21283;2;0;0;0;0;0;7;0;19850;0;0;0;0;8;0;19441;0;0;0;0;9;0;10070;0;0;0;0
10.02.20;22:40:00;1;379;18711;0;2;0;14079;0;0;0;0;3;0;8762;0;0;0;0;4;0;10663;0;0;0;0;5;0;27853;2;0;0;0;0;0;6;0;21283;2;0;0;0;0;0;7;0;19850;0;0;0;0;8;0;19441;0;0;0;0;9;0;10070;0;0;0;0
10.02.20;22:35:00;1;326;18680;0;2;0;14079;0;0;0;0;3;0;8762;0;0;0;0;4;0;10663;0;0;0;0;5;0;27853;2;0;0;0;0;0;6;0;21283;2;0;0;0;0;0;7;0;19850;0;0;0;0;8;0;19441;0;0;0;0;9;0;10070;0;0;0;0
10.02.20;22:30:00;1;280;18653;0;2;0;14079;0;0;0;0;3;0;8762;0;0;0;0;4;0;10663;0;0;0;0;5;0;27853;2;0;0;0;0;0;6;0;21283;2;0;0;0;0;0;7;0;19850;0;0;0;0;8;0;19441;0;0;0;0;9;0;10070;0;0;0;0
10.02.20;22:25:00;1;284;18629;0;2;0;14079;0;0;0;0;3;0;8762;0;0;0;0;4;0;10663;0;0;0;0;5;0;27853;2;0;0;0;0;0;6;0;21283;2;0;0;0;0;0;7;0;19850;0;0;0;0;8;0;19441;0;0;0;0;9;0;10070;0;0;0;0
10.02.20;22:20:00;1;234;18605;0;2;0;14079;0;0;0;0;3;0;8762;0;0;0;0;4;0;10663;0;0;0;0;5;0;27853;2;0;0;0;0;0;6;0;21283;2;0;0;0;0;0;7;0;19850;0;0;0;0;8;0;19441;0;0;0;0;9;0;10070;0;0;0;0
10.02.20;22:15:00;1;214;18587;0;2;0;14079;0;0;0;0;3;0;8762;0;0;0;0;4;0;10663;0;0;0;0;5;0;27853;2;0;0;0;0;0;6;0;21283;2;0;0;0;0;0;7;0;19850;0;0;0;0;8;0;19441;0;0;0;0;9;0;10070;0;0;0;0
10.02.20;22:10:00;1;260;18569;0;2;0;14079;0;0;0;0;3;0;8762;0;0;0;0;4;0;10663;0;0;0;0;5;0;27853;2;0;0;0;0;0;6;0;21283;2;0;0;0;0;0;7;0;19850;0;0;0;0;8;0;19441;0;0;0;0;9;0;10070;0;0;0;0
10.02.20;22:05:00;1;242;18546;0;2;0;14079;0;0;0;0;3;0;8762;0;0;0;0;4;0;10663;0;0;0;0;5;0;27853;2;0;0;0;0;0;6;0;21283;2;0;0;0;0;0;7;0;19850;0;0;0;0;8;0;19441;0;0;0;0;9;0;10070;0;0;0;0
10.02.20;22:00:00;1;251;18525;0;2;0;14079;0;0;0;0;3;0;8762;0;0;0;0;4;0;10663;0;0;0;0;5;0;27853;2;0;0;0;0;0;6;0;21283;2;0;0;0;0;0;7;0;19850;0;0;0;0;8;0;19441;0;0;0;0;9;0;10070;0;0;0;0
10.02.20;21:55:00;1;289;18504;0;2;0;14079;0;0;0;0;3;0;8762;0;0;0;0;4;0;10663;0;0;0;0;5;0;27853;2;0;0;0;0;0;6;0;21283;2;0;0;0;0;0;7;0;19850;0;0;0;0;8;0;19441;0;0;0;0;9;0;10070;0;0;0;0
10.02.20;21:50:00;1;296;18480;0;2;0;14079;0;0;0;0;3;0;8762;0;0;0;0;4;0;10663;0;0;0;0;5;0;27853;2;0;0;0;0;0;6;0;21283;2;0;0;0;0;0;7;0;19850;0;0;0;0;8;0;19441;0;0;0;0;9;0;10070;0;0;0;0
10.02.20;21:45:00;1;315;18455;0;2;0;14079;0;0;0;0;3;0;8762;0;0;0;0;4;0;10663;0;0;0;0;5;0;27853;2;0;0;0;0;0;6;0;21283;2;0;0;0;0;0;7;0;19850;0;0;0;0;8;0;19441;0;0;0;0;9;0;10070;0;0;0;0
10.02.20;21:40:00;1;327;18428;0;2;0;14079;0;0;0;0;3;0;8762;0;0;0;0;4;0;10663;0;0;0;0;5;0;27853;2;0;0;0;0;0;6;0;21283;2;0;0;0;0;0;7;0;19850;0;0;0;0;8;0;19441;0;0;0;0;9;0;10070;0;0;0;0
10.02.20;21:35:00;1;336;18401;0;2;0;14079;0;0;0;0;3;0;8762;0;0;0;0;4;0;10663;0;0;0;0;5;0;27853;2;0;0;0;0;0;6;0;21283;2;0;0;0;0;0;7;0;19850;0;0;0;0;8;0;19441;0;0;0;0;9;0;10070;0;0;0;0
10.02.20;21:30:00;1;315;18372;0;2;0;14079;0;0;0;0;3;0;8762;0;0;0;0;4;0;10663;0;0;0;0;5;0;27853;2;0;0;0;0;0;6;0;21283;2;0;0;0;0;0;7;0;19850;0;0;0;0;8;0;19441;0;0;0;0;9;0;10070;0;0;0;0
10.02.20;21:25:00;1;349;18346;0;2;0;14079;0;0;0;0;3;0;8762;0;0;0;0;4;0;10663;0;0;0;0;5;0;27853;2;0;0;0;0;0;6;0;21283;2;0;0;0;0;0;7;0;19850;0;0;0;0;8;0;19441;0;0;0;0;9;0;10070;0;0;0;0
10.02.20;21:20:00;1;232;18318;0;2;0;14079;0;0;0;0;3;0;8762;0;0;0;0;4;0;10663;0;0;0;0;5;0;27853;2;0;0;0;0;0;6;0;21283;2;0;0;0;0;0;7;0;19850;0;0;0;0;8;0;19441;0;0;0;0;9;0;10070;0;0;0;0
10.02.20;21:15:00;1;232;18299;0;2;0;14079;0;0;0;0;3;0;8762;0;0;0;0;4;0;10663;0;0;0;0;5;0;27853;2;0;0;0;0;0;6;0;21283;2;0;0;0;0;0;7;0;19850;0;0;0;0;8;0;19441;0;0;0;0;9;0;10070;0;0;0;0
10.02.20;21:10:00;1;250;18279;0;2;0;14079;0;0;0;0;3;0;8762;0;0;0;0;4;0;10663;0;0;0;0;5;0;27853;2;0;0;0;0;0;6;0;21283;2;0;0;0;0;0;7;0;19850;0;0;0;0;8;0;19441;0;0;0;0;9;0;10070;0;0;0;0
10.02.20;21:05:00;1;362;18258;0;2;0;14079;0;0;0;0;3;0;8762;0;0;0;0;4;0;10663;0;0;0;0;5;0;27853;2;0;0;0;0;0;6;0;21283;2;0;0;0;0;0;7;0;19850;0;0;0;0;8;0;19441;0;0;0;0;9;0;10070;0;0;0;0
10.02.20;21:00:00;1;795;18228;0;2;0;14079;0;0;0;0;3;0;8762;0;0;0;0;4;0;10663;0;0;0;0;5;0;27853;2;0;0;0;0;0;6;0;21283;2;0;0;0;0;0;7;0;19850;0;0;0;0;8;0;19441;0;0;0;0;9;0;10070;0;0;0;0
10.02.20;20:55:00;1;797;18159;0;2;0;14079;0;0;0;0;3;0;8762;0;0;0;0;4;0;10663;0;0;0;0;5;0;27853;2;0;0;0;0;0;6;0;21283;2;0;0;0;0;0;7;0;19850;0;0;0;0;8;0;19441;0;0;0;0;9;0;10070;0;0;0;0
10.02.20;20:50:00;1;252;18096;0;2;0;14079;0;0;0;0;3;0;8762;0;0;0;0;4;0;10663;0;0;0;0;5;0;27853;2;0;0;0;0;0;6;0;21283;2;0;0;0;0;0;7;0;19850;0;0;0;0;8;0;19441;0;0;0;0;9;0;10070;0;0;0;0
10.02.20;20:45:00;1;275;18075;0;2;0;14079;0;0;0;0;3;0;8762;0;0;0;0;4;0;10663;0;0;0;0;5;0;27853;2;0;0;0;0;0;6;0;21283;2;0;0;0;0;0;7;0;19850;0;0;0;0;8;0;19441;0;0;0;0;9;0;10070;0;0;0;0
10.02.20;20:40:00;1;276;18052;0;2;0;14079;0;0;0;0;3;0;8762;0;0;0;0;4;0;10663;0;0;0;0;5;0;27853;2;0;0;0;0;0;6;0;21283;2;0;0;0;0;0;7;0;19850;0;0;0;0;8;0;19441;0;0;0;0;9;0;10070;0;0;0;0
10.02.20;20:35:00;1;327;18029;0;2;0;14079;0;0;0;0;3;0;8762;0;0;0;0;4;0;10663;0;0;0;0;5;0;27853;2;0;0;0;0;0;6;0;21283;2;0;0;0;0;0;7;0;19850;0;0;0;0;8;0;19441;0;0;0;0;9;0;10070;0;0;0;0
10.02.20;20:30:00;1;277;18002;0;2;0;14079;0;0;0;0;3;0;8762;0;0;0;0;4;0;10663;0;0;0;0;5;0;27853;2;0;0;0;0;0;6;0;21283;2;0;0;0;0;0;7;0;19850;0;0;0;0;8;0;19441;0;0;0;0;9;0;10070;0;0;0;0
10.02.20;20:25:00;1;277;17978;0;2;0;14079;0;0;0;0;3;0;8762;0;0;0;0;4;0;10663;0;0;0;0;5;0;27853;2;0;0;0;0;0;6;0;21283;2;0;0;0;0;0;7;0;19850;0;0;0;0;8;0;19441;0;0;0;0;9;0;10070;0;0;0;0
10.02.20;20:20:00;1;277;17955;0;2;0;14079;0;0;0;0;3;0;8762;0;0;0;0;4;0;10663;0;0;0;0;5;0;27853;2;0;0;0;0;0;6;0;21283;2;0;0;0;0;0;7;0;19850;0;0;0;0;8;0;19441;0;0;0;0;9;0;10070;0;0;0;0
10.02.20;20:15:00;1;291;17932;0;2;0;14079;0;0;0;0;3;0;8762;0;0;0;0;4;0;10663;0;0;0;0;5;0;27853;2;0;0;0;0;0;6;0;21283;2;0;0;0;0;0;7;0;19850;0;0;0;0;8;0;19441;0;0;0;0;9;0;10070;0;0;0;0
10.02.20;20:10:00;1;258;17908;0;2;0;14079;0;0;0;0;3;0;8762;0;0;0;0;4;0;10663;0;0;0;0;5;0;27853;2;0;0;0;0;0;6;0;21283;2;0;0;0;0;0;7;0;19850;0;0;0;0;8;0;19441;0;0;0;0;9;0;10070;0;0;0;0
10.02.20;20:05:00;1;295;17886;0;2;0;14079;0;0;0;0;3;0;8762;0;0;0;0;4;0;10663;0;0;0;0;5;0;27853;2;0;0;0;0;0;6;0;21283;2;0;0;0;0;0;7;0;19850;0;0;0;0;8;0;19441;0;0;0;0;9;0;10070;0;0;0;0
10.02.20;20:00:00;1;226;17861;0;2;0;14079;0;0;0;0;3;0;8762;0;0;0;0;4;0;10663;0;0;0;0;5;0;27853;2;0;0;0;0;0;6;0;21283;2;0;0;0;0;0;7;0;19850;0;0;0;0;8;0;19441;0;0;0;0;9;0;10070;0;0;0;0
10.02.20;19:55:00;1;214;17842;0;2;0;14079;0;0;0;0;3;0;8762;0;0;0;0;4;0;10663;0;0;0;0;5;0;27853;2;0;0;0;0;0;6;0;21283;2;0;0;0;0;0;7;0;19850;0;0;0;0;8;0;19441;0;0;0;0;9;0;10070;0;0;0;0
10.02.20;19:50:00;1;214;17824;0;2;0;14079;0;0;0;0;3;0;8762;0;0;0;0;4;0;10663;0;0;0;0;5;0;27853;2;0;0;0;0;0;6;0;21283;2;0;0;0;0;0;7;0;19850;0;0;0;0;8;0;19441;0;0;0;0;9;0;10070;0;0;0;0
10.02.20;19:45:00;1;214;17806;0;2;0;14079;0;0;0;0;3;0;8762;0;0;0;0;4;0;10663;0;0;0;0;5;0;27853;2;0;0;0;0;0;6;0;21283;2;0;0;0;0;0;7;0;19850;0;0;0;0;8;0;19441;0;0;0;0;9;0;10070;0;0;0;0
10.02.20;19:40:00;1;213;17789;0;2;0;14079;0;0;0;0;3;0;8762;0;0;0;0;4;0;10663;0;0;0;0;5;0;27853;2;0;0;0;0;0;6;0;21283;2;0;0;0;0;0;7;0;19850;0;0;0;0;8;0;19441;0;0;0;0;9;0;10070;0;0;0;0
10.02.20;19:35:00;1;231;17771;0;2;0;14079;0;0;0;0;3;0;8762;0;0;0;0;4;0;10663;0;0;0;0;5;0;27853;2;0;0;0;0;0;6;0;21283;2;0;0;0;0;0;7;0;19850;0;0;0;0;8;0;19441;0;0;0;0;9;0;10070;0;0;0;0
10.02.20;19:30:00;1;231;17750;0;2;0;14079;0;0;0;0;3;0;8762;0;0;0;0;4;0;10663;0;0;0;0;5;0;27853;2;0;0;0;0;0;6;0;21283;2;0;0;0;0;0;7;0;19850;0;0;0;0;8;0;19441;0;0;0;0;9;0;10070;0;0;0;0
10.02.20;19:25:00;1;256;17730;0;2;0;14079;0;0;0;0;3;0;8762;0;0;0;0;4;0;10663;0;0;0;0;5;0;27853;2;0;0;0;0;0;6;0;21283;2;0;0;0;0;0;7;0;19850;0;0;0;0;8;0;19441;0;0;0;0;9;0;10070;0;0;0;0
10.02.20;19:20:00;1;256;17708;0;2;0;14079;0;0;0;0;3;0;8762;0;0;0;0;4;0;10663;0;0;0;0;5;0;27853;2;0;0;0;0;0;6;0;21283;2;0;0;0;0;0;7;0;19850;0;0;0;0;8;0;19441;0;0;0;0;9;0;10070;0;0;0;0
10.02.20;19:15:00;1;253;17687;0;2;0;14079;0;0;0;0;3;0;8762;0;0;0;0;4;0;10663;0;0;0;0;5;0;27853;2;0;0;0;0;0;6;0;21283;2;0;0;0;0;0;7;0;19850;0;0;0;0;8;0;19441;0;0;0;0;9;0;10070;0;0;0;0
10.02.20;19:10:00;1;213;17666;0;2;0;14079;0;0;0;0;3;0;8762;0;0;0;0;4;0;10663;0;0;0;0;5;0;27853;2;0;0;0;0;0;6;0;21283;2;0;0;0;0;0;7;0;19850;0;0;0;0;8;0;19441;0;0;0;0;9;0;10070;0;0;0;0
10.02.20;19:05:00;1;213;17648;0;2;0;14079;0;0;0;0;3;0;8762;0;0;0;0;4;0;10663;0;0;0;0;5;0;27853;2;0;0;0;0;0;6;0;21283;2;0;0;0;0;0;7;0;19850;0;0;0;0;8;0;19441;0;0;0;0;9;0;10070;0;0;0;0
10.02.20;19:00:00;1;247;17628;0;2;0;14079;0;0;0;0;3;0;8762;0;0;0;0;4;0;10663;0;0;0;0;5;0;27853;2;0;0;0;0;0;6;0;21283;2;0;0;0;0;0;7;0;19850;0;0;0;0;8;0;19441;0;0;0;0;9;0;10070;0;0;0;0
10.02.20;18:55:00;1;247;17607;0;2;0;14079;0;0;0;0;3;0;8762;0;0;0;0;4;0;10663;0;0;0;0;5;0;27853;2;0;0;0;0;0;6;0;21283;2;0;0;0;0;0;7;0;19850;0;0;0;0;8;0;19441;0;0;0;0;9;0;10070;0;0;0;0
10.02.20;18:50:00;1;282;17586;0;2;0;14079;0;0;0;0;3;0;8762;0;0;0;0;4;0;10663;0;0;0;0;5;0;27853;2;0;0;0;0;0;6;0;21283;2;0;0;0;0;0;7;0;19850;0;0;0;0;8;0;19441;0;0;0;0;9;0;10070;0;0;0;0
10.02.20;18:45:00;1;337;17563;0;2;0;14079;0;0;0;0;3;0;8762;0;0;0;0;4;0;10663;0;0;0;0;5;0;27853;2;0;0;0;0;0;6;0;21283;2;0;0;0;0;0;7;0;19850;0;0;0;0;8;0;19441;0;0;0;0;9;0;10070;0;0;0;0
10.02.20;18:40:00;1;274;17535;0;2;0;14079;0;0;0;0;3;0;8762;0;0;0;0;4;0;10663;0;0;0;0;5;0;27853;2;0;0;0;0;0;6;0;21283;2;0;0;0;0;0;7;0;19850;0;0;0;0;8;0;19441;0;0;0;0;9;0;10070;0;0;0;0
10.02.20;18:35:00;1;305;17513;0;2;0;14079;0;0;0;0;3;0;8762;0;0;0;0;4;0;10663;0;0;0;0;5;0;27853;2;0;0;0;0;0;6;0;21283;2;0;0;0;0;0;7;0;19850;0;0;0;0;8;0;19441;0;0;0;0;9;0;10070;0;0;0;0
10.02.20;18:30:00;1;371;17487;0;2;0;14079;0;0;0;0;3;0;8762;0;0;0;0;4;0;10663;0;0;0;0;5;0;27853;2;0;0;0;0;0;6;0;21283;2;0;0;0;0;0;7;0;19850;0;0;0;0;8;0;19441;0;0;0;0;9;0;10070;0;0;0;0
10.02.20;18:25:00;1;324;17455;0;2;0;14079;0;0;0;0;3;0;8762;0;0;0;0;4;0;10663;0;0;0;0;5;0;27853;2;0;0;0;0;0;6;0;21283;2;0;0;0;0;0;7;0;19850;0;0;0;0;8;0;19441;0;0;0;0;9;0;10070;0;0;0;0
10.02.20;18:20:00;1;304;17428;0;2;0;14079;0;0;0;0;3;0;8762;0;0;0;0;4;0;10663;0;0;0;0;5;0;27853;2;0;0;0;0;0;6;0;21283;2;0;0;0;0;0;7;0;19850;0;0;0;0;8;0;19441;0;0;0;0;9;0;10070;0;0;0;0
10.02.20;18:15:00;1;215;17404;0;2;0;14079;0;0;0;0;3;0;8762;0;0;0;0;4;0;10663;0;0;0;0;5;0;27853;2;0;0;0;0;0;6;0;21283;2;0;0;0;0;0;7;0;19850;0;0;0;0;8;0;19441;0;0;0;0;9;0;10070;0;0;0;0
10.02.20;18:10:00;1;215;17386;0;2;0;14079;0;0;0;0;3;0;8762;0;0;0;0;4;0;10663;0;0;0;0;5;0;27853;2;0;0;0;0;0;6;0;21283;2;0;0;0;0;0;7;0;19850;0;0;0;0;8;0;19441;0;0;0;0;9;0;10070;0;0;0;0
10.02.20;18:05:00;1;217;17368;0;2;0;14079;0;0;0;0;3;0;8762;0;0;0;0;4;0;10663;0;0;0;0;5;0;27853;2;0;0;0;0;0;6;0;21283;2;0;0;0;0;0;7;0;19850;0;0;0;0;8;0;19441;0;0;0;0;9;0;10070;0;0;0;0
10.02.20;18:00:00;1;275;17350;0;2;0;14079;0;0;0;0;3;0;8762;0;0;0;0;4;0;10663;0;0;0;0;5;0;27853;2;0;0;0;0;0;6;0;21283;2;0;0;0;0;0;7;0;19850;0;0;0;0;8;0;19441;0;0;0;0;9;0;10070;0;0;0;0
10.02.20;17:55:00;1;308;17326;0;2;0;14079;0;0;0;0;3;0;8762;0;0;0;0;4;0;10663;0;0;0;0;5;0;27853;2;0;0;0;0;0;6;0;21283;2;0;0;0;0;0;7;0;19850;0;0;0;0;8;0;19441;0;0;0;0;9;0;10070;0;0;0;0
10.02.20;17:50:00;1;308;17300;0;2;0;14079;0;0;0;0;3;0;8762;0;0;0;0;4;0;10663;0;0;0;0;5;0;27853;2;0;0;0;0;0;6;0;21283;2;0;0;0;0;0;7;0;19850;0;0;0;0;8;0;19441;0;0;0;0;9;0;10070;0;0;0;0
10.02.20;17:45:00;1;336;17274;0;2;0;14079;0;0;0;0;3;0;8762;0;0;0;0;4;0;10663;0;0;0;0;5;0;27853;2;0;0;0;0;0;6;0;21283;2;0;0;0;0;0;7;0;19850;0;0;0;0;8;0;19441;0;0;0;0;9;0;10070;0;0;0;0
10.02.20;17:40:00;1;326;17247;0;2;0;14079;0;0;233;14;3;0;8762;6;0;299;18;4;0;10663;0;0;37;9;5;0;27853;2;0;0;0;0;0;6;0;21283;2;0;0;0;0;0;7;0;19850;0;0;0;0;8;0;19441;0;0;0;0;9;0;10070;0;0;0;0
10.02.20;17:35:00;1;338;17219;0;2;0;14079;6;0;317;17;3;0;8762;6;0;381;18;4;0;10663;1;0;98;16;5;0;27853;2;0;0;68;67;10;6;0;21283;2;0;0;0;0;0;7;0;19850;0;0;0;0;8;0;19441;0;0;0;0;9;0;10070;0;0;50;2
10.02.20;17:30:00;1;415;17192;0;2;0;14079;6;0;349;17;3;0;8762;6;1;418;19;4;0;10663;1;0;136;16;5;0;27853;23;0;0;359;389;27;6;0;21283;23;11;0;180;446;25;7;0;19850;6;0;278;20;8;0;19441;6;0;279;19;9;0;10070;6;0;297;14
10.02.20;17:25:00;1;1005;17151;0;2;0;14079;6;0;373;18;3;0;8762;6;2;448;19;4;0;10663;1;0;177;17;5;0;27853;26;0;0;401;565;27;6;0;21283;23;2;7;481;248;25;7;0;19850;6;0;350;21;8;0;19441;6;0;352;20;9;0;10070;6;0;371;15
10.02.20;17:20:00;1;1013;17067;0;2;0;14079;6;0;396;19;3;1;8762;6;3;482;19;4;0;10663;1;0;206;17;5;8;27852;4;0;0;412;653;28;6;0;21283;23;12;1;248;502;26;7;0;19850;6;0;341;17;8;0;19441;6;1;417;20;9;0;10070;6;1;441;15
10.02.20;17:15:00;1;1127;16982;0;2;4;14079;6;10;397;19;3;0;8762;6;6;497;20;4;0;10663;3;0;229;18;5;74;27851;4;5;5;375;601;29;6;10;21283;23;8;5;481;540;26;7;0;19850;4;2;444;22;8;0;19441;6;3;447;21;9;1;10070;6;3;487;16
10.02.20;17:10:00;1;1143;16888;0;2;17;14079;6;34;388;20;3;3;8762;4;14;492;20;4;0;10663;3;0;200;18;5;101;27845;4;23;20;375;601;29;6;58;21281;4;24;25;428;385;28;7;6;19850;3;19;424;22;8;2;19441;4;11;446;21;9;2;10070;4;8;492;16
10.02.20;17:05:00;1;1165;16792;0;2;50;14078;4;84;356;22;3;6;8761;6;12;520;21;4;10;10663;3;10;199;19;5;129;27836;4;37;34;375;601;30;6;73;21276;4;35;33;427;386;28;7;15;19849;6;26;440;23;8;6;19441;6;11;472;22;9;2;10069;6;7;522;16
10.02.20;17:00:00;1;1150;16696;0;2;88;14073;4;125;363;22;3;21;8761;6;34;528;21;4;34;10662;3;36;198;19;5;190;27825;4;68;62;375;601;30;6;110;21270;4;62;55;427;385;28;7;56;19848;4;95;425;24;8;50;19440;4;92;412;23;9;4;10069;6;8;538;17
10.02.20;16:55:00;1;1259;16599;0;2;118;14066;4;157;370;23;3;65;8759;4;103;466;22;4;56;10659;3;59;198;19;5;216;27809;4;88;70;375;602;30;6;129;21260;4;52;49;427;385;28;7;102;19843;4;136;426;24;8;90;19436;4;128;430;23;9;9;10069;6;14;546;17
10.02.20;16:50:00;1;1245;16494;0;2;97;14056;4;135;369;24;3;23;8754;6;37;518;22;4;42;10654;3;44;198;20;5;197;27791;4;79;67;375;602;30;6;120;21250;4;72;66;428;385;28;7;75;19835;4;120;408;25;8;78;19429;4;115;390;24;9;5;10068;6;11;543;18
10.02.20;16:45:00;1;1212;16390;0;2;112;14048;4;151;366;25;3;55;8752;4;99;484;23;4;52;10651;3;54;198;20;5;229;27774;4;95;77;375;602;31;6;135;21240;4;70;68;428;386;28;7;92;19828;4;133;419;25;8;87;19422;4;128;433;24;9;7;10068;6;13;546;18
10.02.20;16:40:00;1;1169;16289;0;2;281;14039;4;328;393;27;3;140;8747;4;192;440;24;4;171;10646;3;178;220;21;5;380;27755;4;177;145;393;620;31;6;281;21228;4;153;159;522;472;28;7;304;19821;4;354;482;26;8;185;19415;4;226;410;25;9;72;10067;4;104;492;19
10.02.20;16:35:00;1;1142;16192;0;2;1331;14016;4;1415;402;29;3;703;8736;4;761;439;25;4;656;10633;5;684;226;21;5;1204;27718;4;610;497;420;692;31;6;888;21203;4;423;425;608;581;29;7;1396;19796;4;1478;464;26;8;520;19400;4;565;372;25;9;128;10061;4;167;547;20
10.02.20;16:30:00;1;1145;16097;0;2;1614;13907;4;1708;397;30;3;855;8679;4;921;453;25;4;809;10579;5;843;218;21;5;1610;27613;4;820;676;430;701;31;6;1201;21124;4;597;591;605;579;29;7;1986;19684;4;2099;494;27;8;1082;19357;4;1141;367;26;9;209;10051;4;250;558;20
10.02.20;16:25:00;1;1218;15999;0;2;1630;13774;4;1729;401;31;3;884;8608;4;950;445;26;4;792;10511;5;825;223;22;5;1641;27480;4;837;688;423;701;32;6;1258;21023;4;626;630;613;576;29;7;2136;19523;4;2249;486;27;8;1421;19270;4;1495;389;27;9;204;10034;4;245;523;21
10.02.20;16:20:00;1;1775;15877;0;2;1965;13638;4;2076;401;31;3;1091;8534;4;1161;443;26;4;973;10445;5;1013;221;22;5;2167;27338;4;1134;929;431;707;32;6;1637;20916;4;833;820;610;580;29;7;2559;19342;4;2686;488;27;8;1682;19150;4;1765;354;22;9;231;10017;4;262;383;22
10.02.20;16:15:00;1;2618;15708;0;2;1913;13474;4;2024;411;32;3;1115;8443;4;1187;436;26;4;1010;10364;5;1052;213;22;5;2386;27152;4;1256;1026;431;688;32;6;1759;20777;4;867;856;611;583;29;7;2126;19128;4;2236;400;22;8;2383;18983;4;2503;467;28;9;351;9998;4;388;356;23
10.02.20;16:10:00;1;3270;15531;0;2;2121;13310;4;2240;400;32;3;1106;8348;4;1184;476;26;4;1006;10279;5;1048;214;22;5;2627;26951;4;1390;1137;433;705;32;6;1943;20625;4;989;962;614;572;29;7;2892;18903;4;3033;484;28;8;2857;18781;4;3001;491;28;9;647;9968;4;696;368;24
10.02.20;16:05:00;1;1972;15297;0;2;1851;13133;4;1967;423;32;3;959;8256;4;1031;477;27;4;855;10196;5;890;229;22;5;2176;26734;4;1141;928;421;695;33;6;1539;20461;4;835;818;611;580;30;7;2256;18665;4;2364;455;28;8;2114;18545;4;2221;459;28;9;609;9915;4;658;397;25
10.02.20;16:00:00;1;3293;15075;0;2;2482;12980;4;2624;405;34;3;1413;8179;4;1497;442;27;4;1143;10124;5;1191;258;23;5;3290;26544;4;1763;1434;430;707;33;6;2601;20315;4;1342;1307;617;587;30;7;3464;18467;4;3635;482;29;8;3138;18357;4;3297;481;29;9;1389;9859;4;1469;425;26
10.02.20;15:55:00;1;2457;14870;0;2;1800;12777;4;1910;404;34;3;904;8063;4;974;483;27;4;960;10030;5;1000;251;23;5;2723;26257;4;1457;1196;424;703;33;6;2096;20101;4;1056;1042;606;571;30;7;2522;18183;4;2660;473;29;8;2280;18102;4;2402;478;29;9;1002;9745;4;1079;504;26
10.02.20;15:50:00;1;1911;14603;0;2;2305;12610;4;2435;396;35;3;1210;7982;4;1291;445;27;4;973;9948;5;1014;244;23;5;3044;26017;4;1648;1318;429;677;33;6;2614;19920;4;1362;1318;609;575;30;7;3087;17969;4;3246;487;30;8;3248;17907;4;3413;485;29;9;1178;9661;4;1248;328;18
10.02.20;15:45:00;1;2069;14434;0;2;3061;12419;4;3225;396;36;3;1733;7881;4;1828;437;28;4;1247;9866;5;1299;235;23;5;4202;25748;4;2282;1846;434;703;33;6;3157;19716;4;1611;1576;617;590;30;7;4001;17710;4;4210;496;30;8;3870;17637;4;4059;485;30;9;1666;9518;4;1773;500;28
10.02.20;15:40:00;1;2378;14299;0;2;2815;12166;4;2966;398;35;3;1575;7737;4;1663;436;28;4;967;9762;5;1007;231;23;5;3809;25418;4;2058;1668;429;697;34;6;2909;19463;4;1496;1449;616;589;30;7;3849;17377;4;4044;492;30;8;3775;17315;4;3961;481;30;9;1858;9376;4;1969;505;28
10.02.20;15:35:00;1;3057;14093;0;2;2936;11931;4;3098;406;36;3;1530;7606;4;1619;433;28;4;906;9682;5;943;220;23;5;3424;25120;4;1858;1487;431;713;34;6;2550;19230;4;1351;1306;620;592;30;7;3342;17059;4;3524;491;30;8;3650;17003;4;3824;490;30;9;2040;9222;4;2164;515;29
10.02.20;15:30:00;1;3169;13778;0;2;2947;11686;4;3108;403;36;3;1575;7482;4;1662;439;28;4;1121;9608;5;1167;232;24;5;4314;24792;4;2345;1910;427;695;34;6;3406;18984;4;1773;1721;614;593;30;7;4211;16795;4;4431;492;30;8;4147;16700;4;4350;483;30;9;1833;9051;4;1947;444;24
10.02.20;15:25:00;1;1268;13505;0;2;3045;11444;4;3220;412;36;3;1714;7353;4;1805;434;28;4;1067;9517;5;1112;206;24;5;4325;24439;4;2345;1887;432;701;34;6;3282;18714;4;1703;1661;622;587;30;7;3509;16448;4;3687;481;30;8;3412;16359;4;3586;481;30;9;2156;8867;4;2286;537;29
10.02.20;15:20:00;1;2847;13297;0;2;3200;11190;4;3373;401;36;3;1745;7210;4;1842;434;29;4;1147;9427;5;1195;211;24;5;4552;24087;4;2476;1995;430;701;34;6;3455;18447;4;1770;1731;606;583;30;7;4318;16141;4;4532;479;30;8;4223;16061;4;4428;480;30;9;2315;8686;4;2461;537;29
10.02.20;15:15:00;1;1426;13031;0;2;3276;10924;4;3462;417;36;3;1796;7065;4;1894;440;29;4;1227;9332;5;1278;221;25;5;4822;23703;4;2625;2121;435;697;34;6;3549;18155;4;1847;1775;617;594;30;7;4434;15781;4;4659;485;30;8;4316;15709;4;4533;481;29;9;2394;8491;4;2542;534;29
10.02.20;15:10:00;1;1372;12874;0;2;3373;10651;4;3565;412;36;3;1832;6915;4;1934;434;29;4;1340;9230;5;1396;237;25;5;4895;23305;4;2654;2170;436;706;34;6;3803;17855;4;1957;1903;621;585;30;7;4573;15411;4;4805;486;29;8;4465;15348;4;4690;485;29;9;2447;8292;4;2596;531;29
10.02.20;15:05:00;1;2655;12743;0;2;3461;10370;4;3660;415;36;3;1927;6763;4;2034;458;29;4;1474;9119;5;1535;231;26;5;5196;22887;4;2840;2292;433;703;34;6;3936;17538;4;2049;1985;610;587;30;7;4665;15030;4;4902;486;29;8;4542;14978;4;4782;486;29;9;2504;8088;4;2659;536;29
10.02.20;15:00:00;1;3154;12528;0;2;3554;10081;4;3758;416;35;3;2106;6602;4;2226;494;29;4;1663;8995;5;1733;246;26;5;5421;22452;4;2954;2403;434;705;33;6;4114;17208;4;2133;2076;611;587;30;7;4792;14645;4;5033;485;28;8;4669;14604;4;4909;475;28;9;2579;7883;4;2734;540;29
10.02.20;14:55:00;1;1644;12217;0;2;3631;9785;4;3832;413;34;3;2246;6427;4;2374;508;29;4;1723;8857;5;1795;240;26;5;5624;21999;4;3071;2502;433;709;33;6;4276;16864;4;2203;2133;616;590;30;7;4908;14246;4;5149;481;28;8;4774;14213;4;5018;479;27;9;2644;7667;4;2801;530;28
10.02.20;14:50:00;1;1436;12100;0;2;3693;9482;4;3903;417;33;3;2367;6239;4;2508;529;28;4;1936;8713;5;2017;244;27;5;5840;21528;4;3195;2589;434;709;33;6;4429;16506;4;2283;2213;609;589;29;7;5000;13837;4;5259;484;27;8;4891;13815;4;5135;477;27;9;2701;7446;4;2866;533;27
10.02.20;14:45:00;1;2923;11984;0;2;3763;9176;4;3968;411;32;3;2437;6042;4;2578;533;28;4;2070;8553;5;2156;242;27;5;6035;21043;4;3305;2680;434;697;32;6;4586;16137;4;2361;2286;621;589;29;7;5119;13416;4;5377;481;26;8;5007;13405;4;5257;481;26;9;2761;7219;4;2935;539;27
10.02.20;14:40:00;1;3216;11718;0;2;3779;8862;4;3969;414;30;3;2504;5839;4;2647;534;26;4;2266;8380;5;2360;249;26;5;6100;20537;4;3357;2695;435;704;32;6;4883;15753;4;2520;2443;619;590;29;7;5313;12991;4;5580;492;25;8;5241;12995;4;5498;488;25;9;1927;6993;4;2045;358;17
10.02.20;14:35:00;1;1847;11446;0;2;2446;8546;4;2602;413;28;3;1688;5630;4;1797;527;26;4;1658;8192;5;1727;251;26;5;4073;20021;4;2194;1787;434;681;32;6;3608;15364;4;1884;1829;621;596;29;7;2636;12547;4;2794;510;25;8;1923;12554;4;2037;510;25;9;1281;6751;4;1379;547;24
10.02.20;14:30:00;1;1074;11303;0;2;3232;8332;4;3416;427;26;3;2035;5482;4;2160;545;24;4;2432;8039;5;2533;254;26;5;5525;19654;4;3000;2447;431;707;32;6;3620;15080;4;1888;1840;637;606;29;7;3788;12334;4;3988;491;24;8;3699;12383;4;3890;494;25;9;2024;6634;4;2165;550;23